This is the latest recevied weather packets stored in our database for station/object K6HFP. If no packets are shown the sender has not sent any weather packets the latest 1 day(s).
| Time | Temp. | Humidity | Pressure | Rain* | Wind** | Luminosity | Snow |
|---|---|---|---|---|---|---|---|
| 1778021102 | 16.11° C | 70% | 1013.8 hPa | 0 mm | 0.89 m/s, 114° | 309 W/m² | - |
| 1778020799 | 16.11° C | 70% | 1013.9 hPa | 0 mm | 0.89 m/s, 130° | 333 W/m² | - |
| 1778020496 | 16.11° C | 72% | 1013.9 hPa | 0 mm | 0 m/s | 324 W/m² | - |
| 1778020192 | 16.11° C | 71% | 1014 hPa | 0 mm | 1.34 m/s, 188° | 380 W/m² | - |
| 1778019888 | 16.11° C | 71% | 1014.1 hPa | 0 mm | 0.89 m/s, 153° | 404 W/m² | - |
| 1778019584 | 15.56° C | 71% | 1014.1 hPa | 0 mm | 1.34 m/s, 132° | 372 W/m² | - |
| 1778019282 | 15.56° C | 72% | 1014 hPa | 0 mm | 1.34 m/s, 172° | 370 W/m² | - |
| 1778018979 | 15.56° C | 73% | 1014 hPa | 0 mm | 0.45 m/s, 146° | 327 W/m² | - |
| 1778018676 | 15.56° C | 73% | 1014.2 hPa | 0 mm | 1.34 m/s, 156° | 310 W/m² | - |
| 1778018373 | 15.56° C | 74% | 1014.1 hPa | 0 mm | 1.34 m/s, 119° | 346 W/m² | - |
| 1778018071 | 15.56° C | 73% | 1014 hPa | 0 mm | 1.34 m/s, 149° | 334 W/m² | - |
| 1778017769 | 15.56° C | 75% | 1014.1 hPa | 0 mm | 1.79 m/s, 122° | 344 W/m² | - |
| 1778017467 | 15.56° C | 76% | 1014 hPa | 0 mm | 0.45 m/s, 103° | 353 W/m² | - |
| 1778017163 | 15.56° C | 75% | 1014 hPa | 0 mm | 1.79 m/s, 161° | 326 W/m² | - |
| 1778016861 | 15.56° C | 75% | 1014.2 hPa | 0 mm | 1.34 m/s, 178° | 317 W/m² | - |
| 1778016557 | 15° C | 75% | 1014.1 hPa | 0 mm | 0 m/s | 307 W/m² | - |
| 1778016254 | 15° C | 76% | 1014.1 hPa | 0 mm | 0.89 m/s, 168° | 273 W/m² | - |
| 1778015950 | 15° C | 76% | 1014.2 hPa | 0 mm | 1.34 m/s, 147° | 218 W/m² | - |
| 1778015648 | 15° C | 76% | 1014.4 hPa | 0 mm | 0.89 m/s, 168° | 181 W/m² | - |
| 1778015344 | 15° C | 76% | 1014.2 hPa | 0 mm | 1.34 m/s, 170° | 165 W/m² | - |
| 1778015042 | 15° C | 75% | 1014.1 hPa | 0 mm | 0.89 m/s, 173° | 165 W/m² | - |
| 1778014738 | 15° C | 74% | 1014.3 hPa | 0 mm | 0.89 m/s, 166° | 168 W/m² | - |
| 1778014437 | 15.56° C | 74% | 1014.2 hPa | 0 mm | 1.34 m/s, 169° | 162 W/m² | - |
| 1778014133 | 15.56° C | 72% | 1014.3 hPa | 0 mm | 0 m/s | 162 W/m² | - |
| 1778013831 | 15.56° C | 72% | 1014.2 hPa | 0 mm | 0.45 m/s, 311° | 193 W/m² | - |
* Rain latest hour (hover to see other rain measurements)
** Current wind speed in m/s (hover to see current wind gust speed)